Friday Harbor, WA

1:04 AM PST on December 15, 2017 (GMT -0800)
Friday Harbor

Weather History for KFHR - January, 2012

Change the Weather History Date:

Monday, January 9, 2012

  Actual Average Record
Temperature  
Mean Temperature 46 °F -  
Max Temperature 50 °F 43 °F 55 °F (2004)
Min Temperature 39 °F 35 °F 25 °F (1998)
Degree Days  
Heating Degree Days 19    
Moisture  
Dew Point 40 °F    
Average Humidity 78    
Maximum Humidity 89    
Minimum Humidity 55    
Precipitation  
Precipitation 0.01 in - - ()
Sea Level Pressure  
Sea Level Pressure 30.24 in    
Wind  
Wind Speed 2 mph (SSW)    
Max Wind Speed 7 mph    
Max Gust Speed -    
Visibility 10 miles    
Events      
Averages and records for this station are not official NWS values.
T = Trace of Precipitation, MM = Missing Value Source: NWS Daily Summary

Daily Weather History Graph

Daily Weather History Graph

Search for Another Location

Airport or City:

Trip Planner

Search our weather history database for the weather conditions in past years. The results will help you decide how hot, cold, wet, or windy it might be!

Date:

Astronomy

Jan. 09, 2012 Rise Set
Actual Time 8:02 AM PST 4:36 PM PST
Civil Twilight 7:26 AM PST 5:12 PM PST
Nautical Twilight 6:46 AM PST 5:51 PM PST
Astronomical Twilight 6:09 AM PST 6:29 PM PST
Moon 5:34 PM PST (1/9) 8:01 AM PST (1/9)
Length of Visible Light 9h 45m
Length of Day
8h 33m
Full, 100% of the Moon is Illuminated
Jan 9
Full
Jan 16
Last Quarter
Jan 22
New
Jan 30
First Quarter
Feb 7
Full

Hourly Weather History & Observations

Time (PST) Temp. Windchill Dew Point Humidity Pressure Visibility Wind Dir Wind Speed Gust Speed Precip Events Conditions
12:53 AM 46.0 °F 44.8 °F 41.0 °F 83% 30.17 in 10.0 mi North 3.5 mph - N/A   Scattered Clouds
1:53 AM 46.0 °F 44.8 °F 41.0 °F 83% 30.19 in 10.0 mi West 3.5 mph - N/A   Mostly Cloudy
2:53 AM 46.0 °F - 41.0 °F 83% 30.19 in 10.0 mi Calm Calm - N/A   Overcast
3:53 AM 48.0 °F - 42.1 °F 80% 30.19 in 10.0 mi Calm Calm - 0.00 in   Overcast
4:53 AM 46.9 °F - 42.1 °F 83% 30.20 in 10.0 mi Calm Calm - 0.00 in   Overcast
5:53 AM 46.9 °F - 43.0 °F 86% 30.21 in 10.0 mi Calm Calm - 0.01 in   Overcast
6:53 AM 42.1 °F - 39.0 °F 89% 30.21 in 10.0 mi Calm Calm - N/A   Clear
8:13 AM 44.6 °F - 41.0 °F 87% 30.22 in 10.0 mi Calm Calm - N/A   Mostly Cloudy
8:53 AM 46.0 °F - 42.1 °F 86% 30.23 in 10.0 mi Calm Calm - N/A   Overcast
9:50 AM 48.2 °F - 44.6 °F 87% 30.25 in 10.0 mi SE 3.5 mph - N/A   Overcast
9:53 AM 48.9 °F - 44.1 °F 83% 30.26 in 10.0 mi SE 3.5 mph - N/A   Overcast
10:53 AM 50.0 °F - 44.1 °F 80% 30.27 in 10.0 mi SE 3.5 mph - N/A   Mostly Cloudy
11:15 AM 48.2 °F - 44.6 °F 87% 30.26 in 10.0 mi SE 6.9 mph - N/A   Overcast
11:29 AM 50.0 °F - 44.6 °F 82% 30.25 in 10.0 mi SSE 6.9 mph - N/A   Overcast
12:53 PM 48.9 °F - 44.1 °F 83% 30.25 in 10.0 mi SSE 4.6 mph - N/A   Overcast
1:53 PM 50.0 °F - 42.1 °F 74% 30.21 in 10.0 mi South 6.9 mph - N/A   Scattered Clouds
2:53 PM 48.9 °F - 39.9 °F 71% 30.22 in 10.0 mi SW 5.8 mph - N/A   Clear
3:53 PM 46.9 °F - 39.9 °F 77% 30.22 in 10.0 mi SW 5.8 mph - N/A   Partly Cloudy
4:53 PM 46.9 °F - 39.9 °F 77% 30.23 in 10.0 mi WSW 3.5 mph - N/A   Partly Cloudy
6:22 PM 46.4 °F - 37.4 °F 71% 30.23 in 10.0 mi Calm Calm - N/A   Mostly Cloudy
6:32 PM 44.6 °F 43.1 °F 37.4 °F 76% 30.24 in 10.0 mi WSW 3.5 mph - N/A   Mostly Cloudy
6:53 PM 45.0 °F - 37.9 °F 76% 30.24 in 10.0 mi Calm Calm - N/A   Mostly Cloudy
7:51 PM 44.6 °F - 37.4 °F 76% 30.25 in 10.0 mi Calm Calm - N/A   Overcast
7:53 PM 45.0 °F 43.5 °F 37.9 °F 76% 30.25 in 10.0 mi West 3.5 mph - N/A   Overcast
8:10 PM 44.6 °F 43.1 °F 37.4 °F 76% 30.25 in 10.0 mi West 3.5 mph - N/A   Overcast
8:19 PM 44.6 °F 43.1 °F 37.4 °F 76% 30.25 in 10.0 mi Variable 3.5 mph - N/A   Overcast
8:53 PM 45.0 °F - 36.0 °F 71% 30.26 in 10.0 mi Calm Calm - N/A   Overcast
9:02 PM 44.6 °F - 35.6 °F 71% 30.26 in 10.0 mi Calm Calm - N/A   Overcast
9:53 PM 44.1 °F - 35.1 °F 71% 30.27 in 10.0 mi Calm Calm - N/A   Overcast
10:03 PM 42.8 °F - 35.6 °F 76% 30.27 in 10.0 mi Calm Calm - N/A   Mostly Cloudy
10:53 PM 44.1 °F - 28.9 °F 55% 30.28 in 10.0 mi Calm Calm - N/A   Partly Cloudy
11:53 PM 39.0 °F - 30.9 °F 73% 30.30 in 10.0 mi Calm Calm - N/A   Clear